Regional Weather Roundup
Issued by NWS Cleveland, OH

Home | Current Version | Previous Version | Text Only | Print | Product List | Glossary Off
Versions: 1 2 3 4 5 6 7 8 9 10 11 12 13 14 15 16 17 18 19 20 21 22 23 24 25 26 27 28 29 30 31 32 33 34 35 36 37 38 39 40 41 42 43 44 45 46 47 48 49 50

000
ASUS41 KCLE 170602
RWRCLE
OHIO REGIONAL WEATHER ROUNDUP
NATIONAL WEATHER SERVICE CLEVELAND, OH
200 AM EDT WED SEP 17 2014

NOTE: "FAIR" INDICATES FEW OR NO CLOUDS BELOW 12,000 FEET WITH NO
SIGNIFICANT WEATHER AND/OR OBSTRUCTIONS TO VISIBILITY.

OHZ001>008-015>018-024>027-034-035-043-044-170700-
   NORTHWEST OHIO

CITY           SKY/WX    TMP DP  RH WIND       PRES   REMARKS
DEFIANCE       CLEAR     45  43  93 CALM      30.09F
FINDLAY        CLEAR     49  45  86 W3        30.09S
TOLEDO EXPRESS CLEAR     47  45  93 CALM      30.08F
TOLEDO EXEC    CLEAR     50  44  80 CALM      30.09F
LIMA           CLEAR     47  44  90 W3        30.10S
$$

OHZ009>014-019>023-028>033-038-089-170700-
   NORTHEAST OHIO

CITY           SKY/WX    TMP DP  RH WIND       PRES   REMARKS
CLE-HOPKINS    CLEAR     49  46  90 S5        30.10S
CLE-LAKEFRONT  CLEAR     52  47  83 S9        30.07S
CUY CO. ARPT   NOT AVBL
LORAIN-ELYRIA  PTCLDY    50  46  86 SW3       30.09S
ASHTABULA      PTCLDY    46  44  93 CALM      30.09S
AKRON-CANTON   CLEAR     51  46  83 CALM      30.09S
WOOSTER        FOG       44  42  93 CALM      30.10S VSB 1/4
MANSFIELD      CLEAR     46  46 100 S3        30.10S
YOUNGSTOWN     PTCLDY    47  46  97 CALM      30.08F
$$

OHZ042-051>053-060>062-070>072-077>081-170700-
  SOUTHWEST OHIO

CITY           SKY/WX    TMP DP  RH WIND       PRES   REMARKS
CINC-COVINGTON CLEAR     53  49  86 CALM      30.09F
CINC-LUNKEN    CLEAR     50  48  93 CALM      30.11F FOG
HAMILTON       CLEAR     49  48  97 CALM      30.10F
DAYTON         CLEAR     50  46  86 CALM      30.10F
WRIGHT-PAT AFB CLEAR     48  48 100 CALM      30.10F FOG
DAYTON GENERAL CLEAR     50  48  93 CALM      30.09F
WILMINGTON     CLEAR     46  43  89 CALM      30.10S FOG
$$

OHZ036-037-039>041-045>050-054>059-063>069-073>076-082>088-170700-
  CENTRAL AND SOUTHEAST OHIO

CITY           SKY/WX    TMP DP  RH WIND       PRES   REMARKS
COLUMBUS       CLEAR     51  46  83 CALM      30.09S
OSU AIRPORT    CLEAR     50  46  86 CALM      30.09F
BOLTON FIELD   CLEAR     46  46  99 CALM      30.10S
RICKENBACK AFB CLEAR     46  45  94 CALM      30.09S
NEWARK         PTCLDY    45  44  97 CALM      30.09F FOG
MARION         FOG       45  43  93 CALM      30.10F VSB 1
LANCASTER      CLEAR     44  42  93 CALM      30.10R FOG
ZANESVILLE     CLEAR     47  45  93 CALM      30.09S FOG
NEW PHILLY     MOCLDY    47  46  97 CALM      30.10S FOG
$$


USA.gov is the U.S. government's official web portal to all federal, state and local government web resources and services.